| time (UTC) | temp F | wind direction | speed MPH | gust MPH | rain 1hr in | rain 24hr in | rain mn in | humidity % | barometer mb |
| 20260901212004 | 59 | 20 | 1.0 | 4.0 | 0.00 | 0.53 | 0.53 | 99 | 1014.6 |
| 20260901211526 | 59 | 16 | 1.0 | 4.0 | 0.00 | 0.53 | 0.53 | 98 | 1014.7 |
| 20260901211004 | 59 | 45 | 1.0 | 3.0 | 0.00 | 0.53 | 0.53 | 99 | 1014.7 |
| 20260901210504 | 59 | 63 | 1.0 | 2.0 | 0.00 | 0.53 | 0.53 | 98 | 1014.6 |
| 20260901210025 | 59 | 64 | 1.0 | 3.0 | 0.00 | 0.53 | 0.53 | 98 | 1014.7 |
| 20260901205504 | 59 | 63 | 1.0 | 3.0 | 0.00 | 0.53 | 0.53 | 99 | 1014.6 |
| 20260901205005 | 59 | 68 | 1.0 | 2.0 | 0.00 | 0.53 | 0.53 | 98 | 1014.6 |
| 20260901204526 | 59 | 75 | 1.0 | 3.0 | 0.03 | 0.53 | 0.53 | 98 | 1014.5 |
| 20260901204004 | 59 | 74 | 1.0 | 3.0 | 0.03 | 0.53 | 0.53 | 98 | 1014.5 |
| 20260901203504 | 59 | 73 | 1.0 | 3.0 | 0.04 | 0.53 | 0.53 | 98 | 1014.5 |
| 20260901203026 | 59 | 73 | 1.0 | 2.0 | 0.04 | 0.53 | 0.53 | 98 | 1014.5 |
| 20260901202504 | 59 | 73 | 1.0 | 2.0 | 0.05 | 0.53 | 0.53 | 98 | 1014.4 |
| 20260901202005 | 59 | 73 | 1.0 | 3.0 | 0.05 | 0.53 | 0.53 | 98 | 1014.4 |
| 20260901201526 | 59 | 76 | 1.0 | 3.0 | 0.05 | 0.53 | 0.53 | 98 | 1014.2 |
| 20260901201004 | 59 | 76 | 1.0 | 3.0 | 0.05 | 0.53 | 0.53 | 97 | 1014.3 |
| 20260901200504 | 59 | 74 | 1.0 | 3.0 | 0.05 | 0.53 | 0.53 | 97 | 1014.5 |
| 20260901200005 | 60 | 77 | 1.0 | 3.0 | 0.05 | 0.53 | 0.53 | 97 | 1014.5 |
| 20260901195505 | 60 | 69 | 1.0 | 4.0 | 0.05 | 0.53 | 0.53 | 97 | 1014.3 |
| 20260901195004 | 60 | 44 | 1.0 | 4.0 | 0.04 | 0.52 | 0.52 | 97 | 1014.4 |
| 20260901194525 | 60 | 45 | 1.0 | 3.0 | 0.02 | 0.50 | 0.50 | 96 | 1014.5 |
| 20260901194025 | 60 | 53 | 1.0 | 2.0 | 0.02 | 0.50 | 0.50 | 96 | 1014.4 |
| 20260901193504 | 60 | 54 | 1.0 | 2.0 | 0.01 | 0.49 | 0.49 | 96 | 1014.4 |
| 20260901193026 | 60 | 57 | 1.0 | 2.0 | 0.00 | 0.48 | 0.48 | 95 | 1014.3 |
| 20260901192504 | 60 | 55 | 1.0 | 2.0 | 0.00 | 0.48 | 0.48 | 94 | 1014.6 |
| 20260901192005 | 60 | 49 | 1.0 | 2.0 | 0.00 | 0.48 | 0.48 | 94 | 1014.4 |
| 20260901191504 | 60 | 48 | 1.0 | 4.0 | 0.00 | 0.48 | 0.48 | 93 | 1014.3 |
| 20260901191004 | 60 | 49 | 1.0 | 4.0 | 0.00 | 0.48 | 0.48 | 93 | 1014.4 |
| 20260901190504 | 60 | 51 | 1.0 | 4.0 | 0.00 | 0.48 | 0.48 | 93 | 1014.2 |
| 20260901190004 | 60 | 60 | 1.0 | 3.0 | 0.00 | 0.48 | 0.48 | 93 | 1014.3 |
| 20260901185504 | 60 | 52 | 1.0 | 2.0 | 0.00 | 0.48 | 0.48 | 94 | 1014.2 |
| 20260901185004 | 60 | 31 | 1.0 | 3.0 | 0.00 | 0.48 | 0.48 | 94 | 1014.3 |
| 20260901184525 | 60 | 46 | 1.0 | 3.0 | 0.00 | 0.48 | 0.48 | 94 | 1014.3 |
| 20260901184005 | 60 | 73 | 1.0 | 3.0 | 0.00 | 0.48 | 0.48 | 94 | 1014.1 |
| 20260901183504 | 60 | 100 | 1.0 | 3.0 | 0.00 | 0.48 | 0.48 | 93 | 1014.2 |
| 20260901183005 | 60 | 92 | 1.0 | 2.0 | 0.00 | 0.48 | 0.48 | 92 | 1014.3 |
| 20260901182505 | 61 | 63 | 1.0 | 3.0 | 0.00 | 0.48 | 0.48 | 92 | 1013.9 |
| 20260901182004 | 61 | 48 | 1.0 | 3.0 | 0.00 | 0.48 | 0.48 | 91 | 1014.0 |
| 20260901181504 | 61 | 49 | 1.0 | 3.0 | 0.00 | 0.48 | 0.48 | 91 | 1014.0 |
| 20260901181025 | 61 | 32 | 1.0 | 3.0 | 0.00 | 0.48 | 0.48 | 91 | 1013.9 |
| 20260901180505 | 61 | 41 | 1.0 | 3.0 | 0.00 | 0.48 | 0.48 | 92 | 1013.9 |
| 20260901180004 | 61 | 54 | 1.0 | 3.0 | 0.00 | 0.48 | 0.48 | 92 | 1013.9 |
| 20260901175504 | 61 | 51 | 1.0 | 3.0 | 0.00 | 0.48 | 0.48 | 92 | 1014.0 |
| 20260901175004 | 61 | 62 | 1.0 | 3.0 | 0.00 | 0.48 | 0.48 | 91 | 1014.0 |
| 20260901174525 | 61 | 63 | 1.0 | 4.0 | 0.00 | 0.48 | 0.48 | 90 | 1013.9 |
| 20260901174007 | 61 | 62 | 1.0 | 4.0 | 0.00 | 0.48 | 0.48 | 90 | 1013.9 |
| 20260901173505 | 61 | 59 | 1.0 | 3.0 | 0.00 | 0.48 | 0.48 | 90 | 1013.8 |
| 20260901173026 | 62 | 43 | 1.0 | 3.0 | 0.00 | 0.48 | 0.48 | 89 | 1013.7 |
| 20260901172504 | 62 | 30 | 1.0 | 4.0 | 0.00 | 0.48 | 0.48 | 89 | 1013.8 |
| 20260901172026 | 62 | 53 | 2.0 | 4.0 | 0.00 | 0.48 | 0.48 | 89 | 1013.7 |
| 20260901171504 | 62 | 35 | 1.0 | 9.0 | 0.00 | 0.48 | 0.48 | 89 | 1013.6 |
| 20260901171004 | 62 | 11 | 1.0 | 9.0 | 0.00 | 0.48 | 0.48 | 88 | 1013.8 |
| 20260901170505 | 62 | 344 | 1.0 | 3.0 | 0.00 | 0.48 | 0.48 | 88 | 1013.7 |
| 20260901170004 | 62 | 283 | 1.0 | 4.0 | 0.00 | 0.48 | 0.48 | 87 | 1013.7 |
| 20260901165503 | 62 | 299 | 2.0 | 4.0 | 0.00 | 0.48 | 0.48 | 87 | 1013.5 |
| 20260901165004 | 63 | 313 | 2.0 | 6.0 | 0.00 | 0.48 | 0.48 | 86 | 1013.6 |
| 20260901164504 | 63 | 320 | 2.0 | 8.0 | 0.00 | 0.48 | 0.48 | 86 | 1013.7 |
| 20260901164005 | 63 | 332 | 2.0 | 8.0 | 0.00 | 0.48 | 0.48 | 86 | 1013.5 |
| 20260901163504 | 63 | 317 | 1.0 | 6.0 | 0.00 | 0.48 | 0.48 | 86 | 1013.5 |
| 20260901163004 | 63 | 306 | 2.0 | 7.0 | 0.00 | 0.48 | 0.48 | 86 | 1013.6 |
| 20260901162526 | 63 | 309 | 2.0 | 7.0 | 0.00 | 0.48 | 0.48 | 86 | 1013.5 |
| 20260901162005 | 63 | 308 | 2.0 | 10.0 | 0.00 | 0.48 | 0.48 | 86 | 1013.6 |
| 20260901161504 | 63 | 302 | 2.0 | 10.0 | 0.00 | 0.48 | 0.48 | 85 | 1013.5 |
| 20260901161005 | 63 | 312 | 1.0 | 6.0 | 0.00 | 0.48 | 0.48 | 86 | 1013.5 |
| 20260901160505 | 63 | 330 | 2.0 | 6.0 | 0.00 | 0.48 | 0.48 | 85 | 1013.4 |
| 20260901160004 | 63 | 344 | 2.0 | 6.0 | 0.00 | 0.48 | 0.48 | 86 | 1013.5 |
| 20260901155505 | 63 | 324 | 1.0 | 6.0 | 0.00 | 0.48 | 0.48 | 86 | 1013.4 |
| 20260901155004 | 64 | 295 | 1.0 | 7.0 | 0.00 | 0.48 | 0.48 | 87 | 1013.3 |
| 20260901154504 | 63 | 304 | 2.0 | 7.0 | 0.00 | 0.48 | 0.48 | 86 | 1013.3 |
| 20260901154005 | 63 | 334 | 2.0 | 7.0 | 0.00 | 0.48 | 0.48 | 86 | 1013.3 |
| 20260901153526 | 63 | 359 | 2.0 | 6.0 | 0.00 | 0.48 | 0.48 | 85 | 1013.4 |
| 20260901153004 | 63 | 322 | 2.0 | 7.0 | 0.00 | 0.48 | 0.48 | 85 | 1013.3 |
| 20260901152504 | 63 | 299 | 2.0 | 7.0 | 0.00 | 0.48 | 0.48 | 86 | 1013.4 |
| 20260901152005 | 63 | 331 | 2.0 | 6.0 | 0.00 | 0.48 | 0.48 | 85 | 1013.2 |
| 20260901151525 | 63 | 336 | 2.0 | 6.0 | 0.00 | 0.48 | 0.48 | 86 | 1013.2 |
| 20260901151004 | 63 | 328 | 2.0 | 7.0 | 0.00 | 0.48 | 0.48 | 85 | 1013.2 |
| 20260901150503 | 63 | 335 | 2.0 | 7.0 | 0.00 | 0.48 | 0.48 | 86 | 1013.2 |
| 20260901150004 | 64 | 345 | 2.0 | 7.0 | 0.00 | 0.48 | 0.48 | 85 | 1013.0 |
| 20260901145505 | 64 | 342 | 3.0 | 8.0 | 0.00 | 0.48 | 0.48 | 85 | 1013.1 |
| 20260901145005 | 64 | 343 | 3.0 | 8.0 | 0.00 | 0.48 | 0.48 | 83 | 1013.1 |
| 20260901144504 | 65 | 13 | 3.0 | 8.0 | 0.00 | 0.48 | 0.48 | 84 | 1013.0 |
| 20260901144005 | 65 | 23 | 2.0 | 7.0 | 0.00 | 0.48 | 0.48 | 85 | 1012.9 |
| 20260901143505 | 65 | 9 | 2.0 | 7.0 | 0.01 | 0.48 | 0.48 | 84 | 1012.8 |
| 20260901143004 | 64 | 198 | 2.0 | 7.0 | 0.02 | 0.48 | 0.48 | 86 | 1013.0 |
| 20260901142503 | 64 | 290 | 2.0 | 7.0 | 0.02 | 0.48 | 0.48 | 87 | 1012.9 |
| 20260901142004 | 64 | 317 | 1.0 | 9.0 | 0.02 | 0.48 | 0.48 | 89 | 1012.9 |
| 20260901141504 | 64 | 302 | 2.0 | 9.0 | 0.02 | 0.48 | 0.48 | 90 | 1012.8 |
| 20260901141005 | 64 | 293 | 2.0 | 8.0 | 0.02 | 0.48 | 0.48 | 88 | 1012.8 |
| 20260901140525 | 64 | 325 | 2.0 | 8.0 | 0.02 | 0.48 | 0.48 | 89 | 1012.7 |
| 20260901140025 | 65 | 9 | 2.0 | 8.0 | 0.03 | 0.48 | 0.48 | 92 | 1012.7 |
| 20260901135503 | 64 | 322 | 2.0 | 9.0 | 0.04 | 0.48 | 0.48 | 94 | 1012.8 |
| 20260901135005 | 63 | 309 | 2.0 | 9.0 | 0.04 | 0.48 | 0.48 | 93 | 1012.6 |
| 20260901134504 | 62 | 305 | 2.0 | 6.0 | 0.04 | 0.48 | 0.48 | 95 | 1012.8 |
| 20260901134004 | 62 | 322 | 2.0 | 6.0 | 0.04 | 0.48 | 0.48 | 93 | 1012.7 |
| 20260901133503 | 63 | 321 | 1.0 | 4.0 | 0.02 | 0.47 | 0.47 | 93 | 1012.7 |
| 20260901133004 | 63 | 313 | 2.0 | 4.0 | 0.02 | 0.46 | 0.46 | 93 | 1012.7 |
| 20260901132503 | 63 | 322 | 2.0 | 6.0 | 0.02 | 0.46 | 0.46 | 93 | 1012.8 |
| 20260901132005 | 63 | 2 | 2.0 | 7.0 | 0.01 | 0.46 | 0.46 | 93 | 1012.7 |
| 20260901131504 | 63 | 62 | 2.0 | 7.0 | 0.01 | 0.46 | 0.46 | 94 | 1012.9 |
| 20260901131003 | 63 | 73 | 2.0 | 4.0 | 0.01 | 0.46 | 0.46 | 94 | 1012.9 |
| 20260901130505 | 62 | 48 | 2.0 | 7.0 | 0.01 | 0.46 | 0.46 | 93 | 1012.8 |
| 20260901130004 | 63 | 41 | 3.0 | 7.0 | 0.01 | 0.45 | 0.45 | 89 | 1012.9 |
| 20260901125525 | 63 | 77 | 3.0 | 8.0 | 0.00 | 0.44 | 0.44 | 86 | 1012.8 |
| 20260901125005 | 64 | 105 | 3.0 | 8.0 | 0.00 | 0.44 | 0.44 | 84 | 1012.6 |
| 20260901124505 | 65 | 341 | 3.0 | 8.0 | 0.00 | 0.44 | 0.44 | 82 | 1012.8 |
| 20260901124004 | 66 | 29 | 3.0 | 9.0 | 0.00 | 0.44 | 0.44 | 81 | 1012.6 |
| 20260901123504 | 66 | 47 | 3.0 | 9.0 | 0.00 | 0.44 | 0.44 | 81 | 1012.5 |
| 20260901123004 | 67 | 20 | 2.0 | 7.0 | 0.00 | 0.44 | 0.44 | 82 | 1012.5 |
| 20260901122525 | 68 | 4 | 2.0 | 6.0 | 0.00 | 0.44 | 0.44 | 87 | 1012.5 |
| 20260901122004 | 66 | 49 | 2.0 | 6.0 | 0.00 | 0.44 | 0.44 | 86 | 1012.5 |
| 20260901121504 | 65 | 34 | 2.0 | 6.0 | 0.00 | 0.44 | 0.44 | 86 | 1012.4 |
| 20260901121005 | 65 | 335 | 2.0 | 6.0 | 0.00 | 0.44 | 0.44 | 84 | 1012.4 |
| 20260901120112 | 65 | 15 | 1.0 | 3.0 | 0.00 | 0.44 | 0.44 | 87 | 1012.4 |
| 20260901115505 | 65 | 18 | 2.0 | 6.0 | 0.00 | 0.44 | 0.44 | 86 | 1012.5 |
| 20260901115004 | 65 | 40 | 2.0 | 8.0 | 0.00 | 0.44 | 0.44 | 85 | 1012.5 |
| 20260901114503 | 65 | 61 | 3.0 | 8.0 | 0.00 | 0.44 | 0.44 | 85 | 1012.4 |
| 20260901114004 | 66 | 75 | 2.0 | 7.0 | 0.01 | 0.44 | 0.44 | 86 | 1012.3 |
| 20260901113505 | 64 | 70 | 2.0 | 6.0 | 0.01 | 0.44 | 0.44 | 90 | 1012.6 |
| 20260901113004 | 65 | 68 | 3.0 | 6.0 | 0.01 | 0.44 | 0.44 | 85 | 1012.4 |
| 20260901112524 | 66 | 87 | 2.0 | 6.0 | 0.01 | 0.44 | 0.44 | 86 | 1012.4 |
| 20260901112005 | 65 | 85 | 1.0 | 6.0 | 0.01 | 0.44 | 0.44 | 91 | 1012.5 |
| 20260901111504 | 64 | 20 | 1.0 | 3.0 | 0.01 | 0.44 | 0.44 | 92 | 1012.5 |
| 20260901111004 | 63 | 4 | 2.0 | 9.0 | 0.01 | 0.44 | 0.44 | 91 | 1012.5 |
| 20260901110504 | 63 | 326 | 2.0 | 9.0 | 0.01 | 0.44 | 0.44 | 92 | 1012.5 |
| 20260901110005 | 63 | 310 | 2.0 | 4.0 | 0.01 | 0.44 | 0.44 | 93 | 1012.6 |
| 20260901105504 | 62 | 351 | 2.0 | 8.0 | 0.01 | 0.44 | 0.44 | 93 | 1012.3 |
| 20260901105003 | 62 | 43 | 2.0 | 8.0 | 0.02 | 0.44 | 0.44 | 92 | 1012.4 |
| 20260901104504 | 63 | 44 | 2.0 | 7.0 | 0.01 | 0.44 | 0.44 | 90 | 1012.5 |
| 20260901104004 | 64 | 34 | 2.0 | 4.0 | 0.00 | 0.43 | 0.43 | 89 | 1012.4 |
| 20260901103504 | 65 | 24 | 2.0 | 9.0 | 0.00 | 0.43 | 0.43 | 86 | 1012.4 |
| 20260901103004 | 65 | 18 | 2.0 | 9.0 | 0.00 | 0.43 | 0.43 | 86 | 1012.3 |
| 20260901102503 | 65 | 49 | 2.0 | 7.0 | 0.00 | 0.43 | 0.43 | 88 | 1012.4 |
| 20260901102003 | 64 | 59 | 2.0 | 6.0 | 0.00 | 0.43 | 0.43 | 89 | 1012.2 |
| 20260901101504 | 64 | 81 | 2.0 | 7.0 | 0.00 | 0.43 | 0.43 | 90 | 1012.0 |
| 20260901101003 | 63 | 79 | 2.0 | 7.0 | 0.00 | 0.43 | 0.43 | 92 | 1012.2 |
| 20260901100524 | 62 | 78 | 2.0 | 7.0 | 0.00 | 0.43 | 0.43 | 93 | 1012.3 |
| 20260901100024 | 62 | 88 | 2.0 | 7.0 | 0.00 | 0.43 | 0.43 | 93 | 1012.1 |
| 20260901095504 | 62 | 59 | 2.0 | 6.0 | 0.00 | 0.43 | 0.43 | 94 | 1012.4 |
| 20260901095004 | 62 | 10 | 1.0 | 4.0 | 0.00 | 0.43 | 0.43 | 95 | 1012.1 |
| 20260901094504 | 62 | 74 | 2.0 | 6.0 | 0.00 | 0.43 | 0.43 | 93 | 1012.1 |
| 20260901094005 | 62 | 62 | 2.0 | 7.0 | 0.00 | 0.43 | 0.43 | 92 | 1012.2 |
| 20260901093524 | 62 | 29 | 2.0 | 8.0 | 0.00 | 0.43 | 0.43 | 92 | 1012.0 |
| 20260901093004 | 62 | 43 | 3.0 | 9.0 | 0.00 | 0.43 | 0.43 | 92 | 1012.0 |
| 20260901092505 | 62 | 42 | 2.0 | 9.0 | 0.00 | 0.43 | 0.43 | 90 | 1012.1 |
| 20260901092005 | 63 | 48 | 2.0 | 6.0 | 0.00 | 0.43 | 0.43 | 92 | 1011.9 |
| 20260901091505 | 62 | 61 | 2.0 | 6.0 | 0.00 | 0.43 | 0.43 | 94 | 1012.0 |
| 20260901091005 | 61 | 74 | 2.0 | 6.0 | 0.00 | 0.43 | 0.43 | 94 | 1011.9 |
| 20260901090506 | 61 | 84 | 2.0 | 6.0 | 0.00 | 0.43 | 0.43 | 94 | 1011.8 |
| 20260901090005 | 61 | 76 | 2.0 | 6.0 | 0.00 | 0.43 | 0.43 | 93 | 1012.0 |
| 20260901085525 | 61 | 74 | 2.0 | 6.0 | 0.00 | 0.43 | 0.43 | 94 | 1011.8 |
| 20260901085006 | 61 | 77 | 2.0 | 6.0 | 0.00 | 0.43 | 0.43 | 93 | 1011.8 |
| 20260901084505 | 61 | 72 | 2.0 | 6.0 | 0.00 | 0.43 | 0.43 | 93 | 1011.7 |
| 20260901084026 | 61 | 47 | 2.0 | 7.0 | 0.00 | 0.43 | 0.43 | 93 | 1011.8 |
| 20260901083505 | 62 | 35 | 2.0 | 7.0 | 0.00 | 0.43 | 0.43 | 96 | 1011.6 |
| 20260901083005 | 60 | 71 | 2.0 | 7.0 | 0.00 | 0.43 | 0.43 | 97 | 1011.7 |
| 20260901082505 | 60 | 80 | 2.0 | 7.0 | 0.00 | 0.43 | 0.43 | 97 | 1011.9 |
| 20260901082005 | 60 | 75 | 2.0 | 6.0 | 0.00 | 0.43 | 0.43 | 98 | 1011.6 |
| 20260901081505 | 60 | 79 | 2.0 | 6.0 | 0.00 | 0.43 | 0.43 | 98 | 1011.5 |
| 20260901081005 | 59 | 79 | 2.0 | 6.0 | 0.00 | 0.43 | 0.43 | 98 | 1011.6 |
| 20260901080505 | 59 | 82 | 2.0 | 6.0 | 0.00 | 0.43 | 0.43 | 98 | 1011.6 |
| 20260901080026 | 59 | 77 | 2.0 | 7.0 | 0.00 | 0.43 | 0.43 | 98 | 1011.5 |
| 20260901075525 | 59 | 57 | 2.0 | 7.0 | 0.00 | 0.43 | 0.43 | 99 | 1011.5 |
| 20260901075005 | 59 | 30 | 1.0 | 4.0 | 0.00 | 0.43 | 0.43 | 99 | 1011.4 |
| 20260901074505 | 58 | 66 | 2.0 | 4.0 | 0.00 | 0.43 | 0.43 | 99 | 1011.4 |
| 20260901074026 | 58 | 85 | 2.0 | 4.0 | 0.00 | 0.43 | 0.43 | 99 | 1011.4 |
| 20260901073504 | 58 | 83 | 2.0 | 4.0 | 0.00 | 0.43 | 0.43 | 99 | 1011.2 |
| 20260901073006 | 58 | 83 | 2.0 | 4.0 | 0.00 | 0.43 | 0.43 | 99 | 1011.2 |
| 20260901072505 | 58 | 97 | 2.0 | 6.0 | 0.00 | 0.43 | 0.43 | 99 | 1011.1 |
| 20260901072006 | 58 | 101 | 2.0 | 6.0 | 0.00 | 0.43 | 0.43 | 99 | 1011.2 |
| 20260901071504 | 58 | 97 | 2.0 | 4.0 | 0.00 | 0.43 | 0.43 | 99 | 1011.1 |
| 20260901071005 | 58 | 82 | 2.0 | 6.0 | 0.00 | 0.43 | 0.43 | 99 | 1011.1 |
| 20260901070504 | 58 | 74 | 2.0 | 6.0 | 0.00 | 0.43 | 0.43 | 99 | 1011.0 |
| 20260901070005 | 58 | 81 | 2.0 | 6.0 | 0.00 | 0.43 | 0.43 | 99 | 1011.0 |
| 20260901065505 | 58 | 84 | 2.0 | 6.0 | 0.00 | 0.43 | 0.43 | 99 | 1011.1 |
| 20260901065004 | 58 | 73 | 2.0 | 4.0 | 0.00 | 0.43 | 0.43 | 99 | 1010.9 |
| 20260901064504 | 58 | 77 | 1.0 | 3.0 | 0.00 | 0.43 | 0.43 | 99 | 1010.9 |
| 20260901064005 | 58 | 94 | 2.0 | 6.0 | 0.00 | 0.43 | 0.43 | 99 | 1010.9 |
| 20260901063504 | 58 | 90 | 2.0 | 6.0 | 0.01 | 0.43 | 0.43 | 99 | 1010.8 |
| 20260901063004 | 58 | 80 | 2.0 | 4.0 | 0.02 | 0.43 | 0.43 | 99 | 1010.7 |
| 20260901062505 | 58 | 73 | 2.0 | 3.0 | 0.03 | 0.43 | 0.43 | 99 | 1010.8 |
| 20260901062005 | 58 | 79 | 2.0 | 4.0 | 0.04 | 0.43 | 0.43 | 99 | 1010.5 |
| 20260901061526 | 58 | 87 | 2.0 | 6.0 | 0.04 | 0.43 | 0.43 | 99 | 1010.6 |
| 20260901061005 | 58 | 82 | 2.0 | 6.0 | 0.04 | 0.43 | 0.43 | 99 | 1010.6 |
| 20260901060505 | 58 | 75 | 2.0 | 4.0 | 0.04 | 0.43 | 0.43 | 99 | 1010.6 |
| 20260901060005 | 57 | 79 | 2.0 | 6.0 | 0.04 | 0.43 | 0.43 | 99 | 1010.5 |
| 20260901055505 | 57 | 86 | 2.0 | 6.0 | 0.04 | 0.43 | 0.43 | 99 | 1010.4 |
| 20260901055006 | 57 | 89 | 2.0 | 4.0 | 0.04 | 0.43 | 0.43 | 99 | 1010.4 |
| 20260901054526 | 57 | 85 | 2.0 | 4.0 | 0.04 | 0.43 | 0.43 | 99 | 1010.3 |
| 20260901054005 | 57 | 84 | 2.0 | 3.0 | 0.04 | 0.43 | 0.43 | 99 | 1010.4 |
| 20260901053504 | 57 | 82 | 2.0 | 4.0 | 0.03 | 0.42 | 0.42 | 99 | 1010.3 |
| 20260901053006 | 57 | 75 | 2.0 | 4.0 | 0.02 | 0.41 | 0.41 | 99 | 1010.1 |
| 20260901052505 | 57 | 74 | 2.0 | 4.0 | 0.02 | 0.40 | 0.40 | 99 | 1010.3 |
| 20260901052026 | 57 | 76 | 2.0 | 4.0 | 0.01 | 0.39 | 0.39 | 99 | 1010.1 |
| 20260901051505 | 57 | 73 | 2.0 | 4.0 | 0.00 | 0.39 | 0.39 | 99 | 1010.3 |
| 20260901051005 | 57 | 76 | 2.0 | 4.0 | 0.00 | 0.39 | 0.39 | 99 | 1010.2 |
| 20260901050505 | 57 | 82 | 2.0 | 4.0 | 0.00 | 0.39 | 0.39 | 99 | 1009.8 |
| 20260901050005 | 57 | 74 | 2.0 | 6.0 | 0.01 | 0.39 | 0.39 | 99 | 1010.2 |
| 20260901045526 | 57 | 64 | 2.0 | 6.0 | 0.02 | 0.39 | 0.39 | 99 | 1010.1 |
| 20260901045004 | 57 | 58 | 2.0 | 8.0 | 0.04 | 0.39 | 0.39 | 99 | 1009.9 |
| 20260901044506 | 58 | 70 | 2.0 | 8.0 | 0.06 | 0.39 | 0.39 | 99 | 1010.0 |
| 20260901044005 | 58 | 86 | 1.0 | 6.0 | 0.07 | 0.39 | 0.39 | 99 | 1009.9 |
| 20260901043504 | 58 | 81 | 1.0 | 6.0 | 0.08 | 0.39 | 0.39 | 99 | 1009.9 |
| 20260901043005 | 58 | 66 | 2.0 | 6.0 | 0.10 | 0.39 | 0.39 | 99 | 1010.0 |
| 20260901042505 | 58 | 62 | 2.0 | 4.0 | 0.14 | 0.39 | 0.39 | 99 | 1010.1 |
| 20260901042004 | 58 | 58 | 2.0 | 4.0 | 0.22 | 0.39 | 0.39 | 99 | 1010.1 |
| 20260901041526 | 58 | 62 | 2.0 | 6.0 | 0.35 | 0.39 | 0.39 | 99 | 1010.1 |
| 20260901041005 | 58 | 67 | 2.0 | 6.0 | 0.38 | 0.39 | 0.39 | 99 | 1009.9 |
| 20260901040505 | 58 | 79 | 2.0 | 4.0 | 0.38 | 0.39 | 0.39 | 99 | 1009.8 |
| 20260901040006 | 58 | 87 | 2.0 | 6.0 | 0.37 | 0.38 | 0.38 | 99 | 1009.6 |
| 20260901035505 | 58 | 75 | 2.0 | 6.0 | 0.36 | 0.37 | 0.37 | 99 | 1009.8 |
| 20260901035027 | 58 | 66 | 2.0 | 4.0 | 0.35 | 0.35 | 0.35 | 98 | 1009.7 |
| 20260901034505 | 58 | 74 | 2.0 | 4.0 | 0.33 | 0.33 | 0.33 | 98 | 1009.7 |
| 20260901034005 | 58 | 75 | 2.0 | 6.0 | 0.32 | 0.32 | 0.32 | 98 | 1009.9 |
| 20260901033504 | 58 | 79 | 2.0 | 6.0 | 0.30 | 0.30 | 0.30 | 98 | 1009.8 |
| 20260901033004 | 58 | 83 | 3.0 | 6.0 | 0.29 | 0.29 | 0.29 | 98 | 1009.9 |
| 20260901032506 | 59 | 108 | 3.0 | 8.0 | 0.25 | 0.25 | 0.25 | 98 | 1009.9 |
| 20260901032027 | 59 | 127 | 4.0 | 9.0 | 0.16 | 0.16 | 0.16 | 97 | 1010.1 |
| 20260901031504 | 59 | 121 | 3.0 | 9.0 | 0.04 | 0.04 | 0.04 | 97 | 1009.9 |
| 20260901031026 | 59 | 108 | 3.0 | 8.0 | 0.01 | 0.01 | 0.01 | 97 | 1009.9 |
| 20260901030504 | 59 | 100 | 2.0 | 6.0 | 0.00 | 0.00 | 0.00 | 96 | 1009.8 |
| 20260901030005 | 59 | 96 | 3.0 | 6.0 | 0.00 | 0.00 | 0.00 | 96 | 1009.6 |
| 20260901025505 | 59 | 109 | 3.0 | 6.0 | 0.00 | 0.00 | 0.00 | 96 | 1009.9 |
| 20260901025005 | 59 | 119 | 3.0 | 6.0 | 0.00 | 0.00 | 0.00 | 95 | 1009.8 |
| 20260901024505 | 60 | 112 | 3.0 | 4.0 | 0.00 | 0.00 | 0.00 | 94 | 1009.8 |
| 20260901024004 | 60 | 107 | 2.0 | 4.0 | 0.00 | 0.00 | 0.00 | 94 | 1009.8 |
| 20260901023505 | 60 | 103 | 2.0 | 3.0 | 0.00 | 0.00 | 0.00 | 93 | 1009.8 |
| 20260901023006 | 60 | 101 | 2.0 | 3.0 | 0.00 | 0.00 | 0.00 | 93 | 1009.7 |
| 20260901022505 | 60 | 107 | 2.0 | 3.0 | 0.00 | 0.00 | 0.00 | 93 | 1009.7 |
| 20260901022026 | 60 | 110 | 2.0 | 3.0 | 0.00 | 0.00 | 0.00 | 93 | 1009.5 |
| 20260901021526 | 60 | 105 | 2.0 | 3.0 | 0.00 | 0.00 | 0.00 | 93 | 1009.6 |
| 20260901021004 | 60 | 108 | 1.0 | 3.0 | 0.00 | 0.00 | 0.00 | 93 | 1009.5 |
| 20260901020505 | 60 | 110 | 2.0 | 4.0 | 0.00 | 0.00 | 0.00 | 93 | 1009.6 |
| 20260901020006 | 60 | 107 | 2.0 | 4.0 | 0.00 | 0.00 | 0.00 | 94 | 1009.6 |
| 20260901015505 | 60 | 109 | 2.0 | 3.0 | 0.00 | 0.00 | 0.00 | 94 | 1009.5 |
| 20260901015005 | 60 | 109 | 2.0 | 4.0 | 0.00 | 0.00 | 0.00 | 95 | 1009.4 |
| 20260901014504 | 60 | 109 | 2.0 | 4.0 | 0.00 | 0.00 | 0.00 | 95 | 1009.4 |
| 20260901014006 | 60 | 119 | 1.0 | 3.0 | 0.00 | 0.00 | 0.00 | 95 | 1009.4 |
| 20260901013505 | 60 | 134 | 2.0 | 4.0 | 0.00 | 0.00 | 0.00 | 95 | 1009.5 |
| 20260901013006 | 60 | 138 | 2.0 | 6.0 | 0.00 | 0.00 | 0.00 | 96 | 1009.3 |
| 20260901012505 | 60 | 136 | 2.0 | 6.0 | 0.00 | 0.00 | 0.00 | 96 | 1009.3 |
| 20260901012005 | 60 | 136 | 2.0 | 4.0 | 0.00 | 0.00 | 0.00 | 96 | 1009.3 |
| 20260901011505 | 60 | 131 | 2.0 | 3.0 | 0.00 | 0.00 | 0.00 | 96 | 1009.5 |
| 20260901011004 | 60 | 130 | 2.0 | 3.0 | 0.00 | 0.00 | 0.00 | 95 | 1009.5 |
| 20260901010504 | 60 | 134 | 2.0 | 3.0 | 0.00 | 0.00 | 0.00 | 95 | 1009.5 |
| 20260901010005 | 60 | 133 | 2.0 | 3.0 | 0.00 | 0.00 | 0.00 | 95 | 1009.5 |
| 20260901005525 | 60 | 131 | 2.0 | 3.0 | 0.00 | 0.00 | 0.00 | 95 | 1009.4 |
| 20260901005005 | 60 | 133 | 2.0 | 4.0 | 0.00 | 0.00 | 0.00 | 95 | 1009.5 |
| 20260901004526 | 60 | 137 | 3.0 | 4.0 | 0.00 | 0.00 | 0.00 | 96 | 1009.5 |
| 20260901004005 | 60 | 134 | 3.0 | 6.0 | 0.00 | 0.00 | 0.00 | 96 | 1009.6 |
| 20260901003504 | 60 | 125 | 3.0 | 6.0 | 0.00 | 0.00 | 0.00 | 96 | 1009.5 |
| 20260901003026 | 60 | 129 | 3.0 | 6.0 | 0.00 | 0.00 | 0.00 | 97 | 1009.5 |
| 20260901002504 | 60 | 182 | 2.0 | 4.0 | 0.00 | 0.00 | 0.00 | 97 | 1009.5 |
| 20260901002026 | 60 | 212 | 2.0 | 3.0 | 0.00 | 0.00 | 0.00 | 97 | 1009.5 |
| 20260901001504 | 60 | 213 | 1.0 | 3.0 | 0.00 | 0.00 | 0.00 | 97 | 1009.4 |
| 20260901001004 | 60 | 213 | 1.0 | 2.0 | 0.00 | 0.00 | 0.00 | 97 | 1009.4 |
| 20260901000525 | 60 | 213 | 1.0 | 2.0 | 0.00 | 0.00 | 0.00 | 97 | 1009.3 |
| 20260901000005 | 60 | 213 | 1.0 | 2.0 | 0.00 | 0.00 | 0.00 | 97 | 1009.1 |
| 20260831235526 | 60 | 213 | 1.0 | 2.0 | 0.00 | 0.00 | 0.00 | 97 | 1009.2 |
| 20260831235005 | 60 | 213 | 1.0 | 2.0 | 0.00 | 0.00 | 0.00 | 97 | 1009.2 |
| 20260831234504 | 60 | 213 | 1.0 | 2.0 | 0.00 | 0.00 | 0.00 | 97 | 1009.2 |
| 20260831234004 | 60 | 213 | 1.0 | 3.0 | 0.00 | 0.00 | 0.00 | 97 | 1009.3 |
| 20260831233504 | 60 | 213 | 1.0 | 3.0 | 0.00 | 0.00 | 0.00 | 97 | 1009.3 |
| 20260831233005 | 60 | 213 | 1.0 | 3.0 | 0.00 | 0.00 | 0.00 | 97 | 1009.4 |
| 20260831232504 | 60 | 213 | 1.0 | 3.0 | 0.00 | 0.00 | 0.00 | 97 | 1009.5 |
| 20260831232005 | 60 | 213 | 1.0 | 2.0 | 0.00 | 0.00 | 0.00 | 97 | 1009.6 |
| 20260831231505 | 60 | 213 | 1.0 | 2.0 | 0.00 | 0.00 | 0.00 | 97 | 1009.6 |
| 20260831231004 | 60 | 213 | 2.0 | 3.0 | 0.00 | 0.00 | 0.00 | 97 | 1009.5 |
| 20260831230505 | 60 | 213 | 2.0 | 3.0 | 0.00 | 0.00 | 0.00 | 97 | 1009.6 |
| 20260831230005 | 60 | 213 | 1.0 | 2.0 | 0.00 | 0.00 | 0.00 | 96 | 1009.6 |
| 20260831225504 | 60 | 213 | 1.0 | 2.0 | 0.00 | 0.00 | 0.00 | 96 | 1009.4 |
| 20260831225004 | 61 | 213 | 1.0 | 2.0 | 0.00 | 0.00 | 0.00 | 96 | 1009.5 |
| 20260831224504 | 61 | 213 | 1.0 | 2.0 | 0.00 | 0.00 | 0.00 | 96 | 1009.5 |
| 20260831224004 | 61 | 213 | 1.0 | 2.0 | 0.00 | 0.00 | 0.00 | 96 | 1009.5 |
| 20260831223504 | 60 | 213 | 1.0 | 2.0 | 0.00 | 0.00 | 0.00 | 96 | 1009.6 |
| 20260831223005 | 60 | 213 | 1.0 | 2.0 | 0.00 | 0.00 | 0.00 | 96 | 1009.6 |
| 20260831222505 | 60 | 215 | 1.0 | 3.0 | 0.00 | 0.00 | 0.00 | 96 | 1009.8 |
| 20260831222005 | 60 | 260 | 2.0 | 3.0 | 0.00 | 0.00 | 0.00 | 96 | 1010.1 |
| 20260831221504 | 60 | 311 | 1.0 | 2.0 | 0.00 | 0.00 | 0.00 | 96 | 1010.0 |
| 20260831221005 | 59 | 311 | 1.0 | 2.0 | 0.00 | 0.00 | 0.00 | 95 | 1010.1 |
| 20260831220504 | 60 | 311 | 1.0 | 2.0 | 0.00 | 0.00 | 0.00 | 95 | 1010.1 |
| 20260831220006 | 60 | 311 | 1.0 | 1.0 | 0.00 | 0.00 | 0.00 | 95 | 1010.3 |
| 20260831215505 | 60 | 311 | 0.0 | 1.0 | 0.00 | 0.00 | 0.00 | 95 | 1010.2 |
| 20260831215005 | 60 | 311 | 0.0 | 1.0 | 0.00 | 0.00 | 0.00 | 94 | 1010.2 |
| 20260831214526 | 61 | 311 | 0.0 | 1.0 | 0.00 | 0.00 | 0.00 | 94 | 1010.2 |
| 20260831214005 | 61 | 311 | 0.0 | 1.0 | 0.00 | 0.00 | 0.00 | 93 | 1010.2 |
| 20260831213505 | 61 | 311 | 0.0 | 1.0 | 0.00 | 0.00 | 0.00 | 93 | 1010.1 |
| 20260831213005 | 62 | 311 | 0.0 | 1.0 | 0.00 | 0.00 | 0.00 | 92 | 1010.2 |
| 20260831212505 | 62 | 311 | 0.0 | 1.0 | 0.00 | 0.00 | 0.00 | 92 | 1010.3 |